Flag for Kazakhstan Weather past 2 weeks in Astana, Kazakhstan

Now
41 °F

Passing clouds.


Feels Like: 37 °F
Forecast: 37 / 57 °F
Wind: 6 mph from West

Location: Astana


UV Index: 3 (Moderate)

Visibility: 4 mi


Pressure: 30.39 "Hg

Humidity: 57%

Dew point: 27 °F

Location of AstanaLocation

Historic Weather in Astana

°F

Astana temperature yesterday

Maximum temperature yesterday: 55 °F (at 4:00 PM)
Minimum temperature yesterday: 28 °F (at 6:30 AM)
Average temperature yesterday: 45 °F

Past Weeks' High & Low Weather Summary

 TemperatureHumidityPressure
High59 °F (Apr 9, 4:30 PM)100% (Apr 2, 7:00 AM)30.48 "Hg (Apr 2, 7:00 AM)
Low18 °F (Apr 12, 5:30 AM)23% (Apr 16, 4:30 PM)29.45 "Hg (Apr 7, 8:00 AM)
Average38 °F64%30.07 "Hg
* Reported Midnight between Apr 1 and Apr 2 — Midnight between Apr 16 and Apr 17, Astana, Weather by CustomWeather, © 2014

Note: Actual official high and low records may vary slightly from our data, if they occured in-between our weather recording intervals... More about our weather records

Advertising

Historic Weather Conditions — Data for Previous 24 hours

 ConditionsComfort  
Time TempWeatherWind HumidityBarometerVisibility
12:00 AM
Apr 17
43 °FPassing clouds.6 mph53%30.39 "Hg2 mi
11:30 PM
Apr 16
46 °FPassing clouds.6 mph40%30.39 "Hg1 mi
11:00 PM45 °FPassing clouds.6 mph46%30.42 "Hg2 mi
10:30 PM45 °FPassing clouds.6 mph46%30.42 "Hg3 mi
10:00 PM45 °FPassing clouds.6 mph46%30.42 "Hg4 mi
9:30 PM45 °FPassing clouds.6 mph42%30.42 "Hg4 mi
9:00 PM46 °FPassing clouds.6 mph40%30.42 "Hg6 mi
8:30 PM50 °FClear.3 mph32%30.39 "Hg10 mi
8:00 PM52 °FSunny.3 mph30%30.39 "Hg10 mi
7:00 PM54 °FPassing clouds.6 mph28%30.39 "HgN/A
6:30 PM54 °FPassing clouds.6 mph26%30.39 "HgN/A
6:00 PM55 °FPassing clouds.6 mph24%30.39 "HgN/A
5:30 PM55 °FSunny.3 mph24%30.39 "Hg10 mi
5:00 PM55 °FSunny.3 mph23%30.39 "Hg10 mi
4:30 PM55 °FPassing clouds.6 mph23%30.42 "HgN/A
4:00 PM55 °FPassing clouds.8 mph24%30.42 "HgN/A
3:30 PM54 °FPassing clouds.6 mph24%30.42 "HgN/A
3:00 PM54 °FSunny.3 mph24%30.42 "Hg10 mi
2:30 PM52 °FPassing clouds.8 mph26%30.45 "HgN/A
2:00 PM52 °FPassing clouds.3 mph26%30.45 "HgN/A
1:30 PM52 °FSunny.3 mph28%30.45 "Hg10 mi
1:00 PM52 °FSunny.3 mph28%30.45 "Hg10 mi
12:30 PM54 °FSunny.6 mph26%30.45 "Hg10 mi
12:00 PM52 °FSunny.3 mph28%30.48 "Hg10 mi
11:30 AM52 °FPassing clouds.6 mph28%30.48 "HgN/A
11:00 AM50 °FScattered clouds.6 mph30%30.48 "HgN/A
10:30 AM50 °FPassing clouds.3 mph35%30.48 "HgN/A
10:00 AM48 °FPassing clouds.3 mph40%30.48 "HgN/A
9:30 AM46 °FSunny.3 mph46%30.48 "Hg10 mi
9:00 AM45 °FPassing clouds.3 mph53%30.48 "HgN/A
8:30 AM43 °FSunny.3 mph66%30.48 "Hg10 mi
8:00 AM37 °FPassing clouds.3 mph87%30.48 "HgN/A
7:30 AM34 °FSunny.3 mph81%30.48 "Hg10 mi
7:00 AM30 °FSunny.3 mph80%30.45 "Hg10 mi
6:30 AM28 °FIce fog.3 mph93%30.45 "Hg2 mi
5:00 AM30 °FClear.3 mph86%30.42 "Hg10 mi
4:30 AM32 °FClear.3 mph87%30.42 "Hg10 mi
4:00 AM32 °FClear.1 mph87%30.42 "Hg10 mi
3:30 AM32 °FClear.1 mph87%30.42 "Hg10 mi
2:30 AM36 °FPassing clouds.3 mph81%30.42 "HgN/A
2:00 AM34 °FClear.1 mph87%30.42 "Hg10 mi
1:30 AM34 °FClear.1 mph81%30.42 "Hg10 mi
1:00 AM34 °FClear.3 mph81%30.42 "Hg10 mi
Weather by CustomWeather, © 2014

See weather overview